Home   Weather   Germering   Past weeks

Flag for Germany Past Weather in Germering, Bavaria, Germany — Yesterday and Last 2 Weeks

Now
18 °F

Light snow. Passing clouds.


Feels Like: 6 °F
Forecast: 13 / 19 °F
Wind: 10 mph from Northeast

Location: Oberpfaffenhofen

Current Time: Jan 17, 2017 at 7:52:32 am

Latest Report: Jan 17, 2017 at 7:20 am


Visibility: 3 mi

Pressure: 30.30 "Hg (28.27 "Hg at 538m altitude)

Humidity: 93%

Dew Point: 16 °F

Location of GermeringLocation

Past Weather in Germering — Graph

°F

Germering Temperature Yesterday

Maximum temperature yesterday: 25 °F (at 11:50 am)
Minimum temperature yesterday: 23 °F (at 7:20 am)
Average temperature yesterday: 24 °F

High & Low Weather Summary for the Past Weeks

 TemperatureHumidityPressure
High39 °F (Jan 12, 11:50 am)100% (Jan 2, 8:20 am)30.63 "Hg (Jan 2, 8:20 am)
Low7 °F (Jan 6, 9:20 am)55% (Jan 13, 1:50 pm)29.47 "Hg (Jan 13, 7:20 am)
Average28 °F85%30.02 "Hg
* Reported Jan 2 7:20 am — Jan 17 6:50 am, Germering, Weather by CustomWeather, © 2017

Note: Actual official high and low records may vary slightly from our data, if they occured in-between our weather recording intervals... More about our weather records

Advertising

Germering Weather History for the Previous 24 Hours

Scroll right to see more
 ConditionsComfort  
Time TempWeatherWind HumidityBarometerVisibility
6:50 am
Tue, Jan 17
18 °FPassing clouds.9 mph93%30.30 "Hg4 mi
6:50 pm
Mon, Jan 16
23 °FSnow flurries. Partly cloudy.8 mph93%30.18 "Hg4 mi
6:20 pm23 °FSnow flurries. Ice fog.8 mph93%30.15 "Hg3 mi
5:50 pm23 °FSnow flurries. Partly cloudy.8 mph93%30.15 "Hg5 mi
5:20 pm25 °FSnow flurries. Partly cloudy.9 mph93%30.15 "Hg4 mi
4:50 pm25 °FPartly cloudy.8 mph93%30.15 "HgN/A
4:20 pm25 °FPartly sunny.8 mph93%30.12 "HgN/A
3:50 pm25 °FPartly sunny.7 mph93%30.12 "Hg5 mi
3:20 pm23 °FSnow flurries. Ice fog.8 mph100%30.12 "Hg2 mi
2:50 pm25 °FSnow flurries. Broken clouds.5 mph93%30.12 "Hg4 mi
2:20 pm25 °FSnow flurries. Ice fog.5 mph93%30.12 "Hg3 mi
1:50 pm25 °FSnow flurries. Ice fog.5 mph93%30.12 "Hg2 mi
1:20 pm25 °FSnow flurries. Ice fog.6 mph93%30.12 "Hg1 mi
1:10 pm25 °FSnow flurries. Broken clouds.6 mph86%30.12 "Hg3 mi
12:50 pm25 °FSnow flurries. Broken clouds.5 mph93%30.12 "Hg4 mi
12:20 pm25 °FSnow flurries. Ice fog.6 mph93%30.12 "Hg3 mi
11:50 am25 °FSnow flurries. Ice fog.6 mph93%30.12 "Hg2 mi
11:20 am23 °FSnow flurries. Broken clouds.5 mph100%30.12 "Hg5 mi
10:50 am23 °FLight snow. Broken clouds.2 mph100%30.12 "Hg4 mi
10:20 am23 °FLight snow. Broken clouds.3 mph93%30.12 "Hg4 mi
9:50 am23 °FLight snow. Ice fog.5 mph93%30.12 "Hg3 mi
9:20 am23 °FLight snow. Ice fog.3 mph93%30.12 "Hg3 mi
8:50 am23 °FLight snow. Ice fog.3 mph93%30.09 "Hg2 mi
8:20 am23 °FLight snow. Ice fog.5 mph93%30.09 "Hg2 mi
7:50 am23 °FLight snow. Ice fog.5 mph93%30.09 "Hg2 mi
7:20 am23 °FLight snow. Partly cloudy.6 mph93%30.09 "Hg4 mi
Weather by CustomWeather, © 2017

See weather overviewHow to use our weather pages